Location: Canyon City
(32.5951°N, 116.5278°W)
Time: 03:20:02
(UTC+00:00)

ARGOS - Pass Details

Date: 08 September 2024
Orbit: 818 x 834 km, 98.4° (Epoch: 10 October)

Event Time Altitude Azimuth Distance (km) Brightness Sun altitude
Rises 12:52:09 0° 6° (N) 3,352 6.6 -7.8°
Reaches altitude 10° 12:54:32 10° 2° (N) 2,416 5.8 -7.3°
Maximum altitude 12:59:43 53° 287° (WNW) 997 3.3 -6.3°
Drops below altitude 10° 13:04:53 10° 211° (SSW) 2,407 5.2 -5.2°
Sets 13:07:16 0° 206° (SSW) 3,338 6.0 -4.7°
